Warwick, RI

8:03 AM EDT on September 25, 2016 (GMT -0400)
Green State

Weather History for KPVD - April, 2014

Change the Weather History Date:

Sunday, April 13, 2014

  Actual Average Record
Temperature  
Mean Temperature 54 °F 48 °F  
Max Temperature 65 °F 58 °F 85 °F (1977)
Min Temperature 42 °F 39 °F 26 °F (1956)
Degree Days  
Heating Degree Days 11 17  
Month to date heating degree days 209 245  
Since 1 July heating degree days 5435 5116  
Cooling Degree Days 0 0  
Month to date cooling degree days 0 0  
Year to date cooling degree days 0 0  
Growing Degree Days 3 (Base 50)    
Moisture  
Dew Point 42 °F    
Average Humidity 65    
Maximum Humidity 82    
Minimum Humidity 47    
Precipitation  
Precipitation 0.00 in 0.15 in 2.27 in (2004)
Month to date precipitation 1.43 2.08  
Year to date precipitation 16.81 14.24  
Snow  
Snow 0.00 in 0.00 in 2.40 in (1907)
Month to date snowfall 0.0 0.4  
Since 1 July snowfall 43.3 33.6  
Snow Depth 0.00 in    
Sea Level Pressure  
Sea Level Pressure 30.17 in    
Wind  
Wind Speed 11 mph (South)    
Max Wind Speed 21 mph    
Max Gust Speed 36 mph    
Visibility 10 miles    
Events      
T = Trace of Precipitation, MM = Missing Value Source: NWS Daily Summary

Daily Weather History Graph

Daily Weather History Graph

Search for Another Location

Airport or City:

Trip Planner

Search our weather history database for the weather conditions in past years. The results will help you decide how hot, cold, wet, or windy it might be!

Date:

Astronomy

Apr. 13, 2014 Rise Set
Actual Time 6:08 AM EDT 7:24 PM EDT
Civil Twilight 5:40 AM EDT 7:53 PM EDT
Nautical Twilight 5:05 AM EDT 8:27 PM EDT
Astronomical Twilight 4:29 AM EDT 9:03 PM EDT
Moon 5:58 PM EDT (4/13) 5:07 AM EDT (4/13)
Length of Visible Light 14h 12m
Length of Day
13h 15m
Waxing Gibbous, 97% of the Moon is Illuminated
Apr 13
Waxing Gibbous
Apr 15
Full
Apr 22
Last Quarter
Apr 29
New
May 6
First Quarter

Hourly Weather History & Observations

Time (EDT) Temp. Windchill Dew Point Humidity Pressure Visibility Wind Dir Wind Speed Gust Speed Precip Events Conditions
12:51 AM 48.9 °F - 33.1 °F 54% 30.23 in 10.0 mi South 3.5 mph - N/A   Clear
1:51 AM 46.9 °F - 35.1 °F 63% 30.25 in 10.0 mi Calm Calm - N/A   Clear
2:51 AM 46.0 °F 43.9 °F 39.0 °F 76% 30.24 in 10.0 mi South 4.6 mph - N/A   Clear
3:51 AM 44.1 °F 40.8 °F 37.9 °F 79% 30.24 in 10.0 mi South 5.8 mph - N/A   Clear
4:51 AM 44.1 °F 40.8 °F 37.9 °F 79% 30.25 in 10.0 mi South 5.8 mph - N/A   Clear
5:51 AM 43.0 °F 40.3 °F 37.0 °F 80% 30.24 in 10.0 mi SSW 4.6 mph - N/A   Scattered Clouds
6:51 AM 44.6 °F 40.2 °F 37.4 °F 76% 30.25 in 10.0 mi SSE 8.1 mph - N/A   Scattered Clouds
7:51 AM 48.0 °F - 39.9 °F 74% 30.26 in 10.0 mi South 10.4 mph - N/A   Scattered Clouds
8:51 AM 52.0 °F - 41.0 °F 66% 30.24 in 10.0 mi South 8.1 mph - N/A   Mostly Cloudy
9:51 AM 54.0 °F - 39.9 °F 59% 30.24 in 10.0 mi SSE 12.7 mph - N/A   Scattered Clouds
10:51 AM 55.0 °F - 36.0 °F 49% 30.23 in 10.0 mi SSE 12.7 mph - N/A   Mostly Cloudy
11:51 AM 55.9 °F - 35.1 °F 45% 30.22 in 10.0 mi SSE 11.5 mph - N/A   Mostly Cloudy
12:51 PM 57.0 °F - 37.9 °F 49% 30.20 in 10.0 mi SSE 15.0 mph 35.7 mph N/A   Overcast
1:51 PM 57.0 °F - 43.0 °F 59% 30.18 in 10.0 mi SSE 13.8 mph - N/A   Mostly Cloudy
2:51 PM 57.9 °F - 46.9 °F 67% 30.15 in 10.0 mi SSE 18.4 mph - N/A   Partly Cloudy
3:51 PM 60.1 °F - 48.9 °F 67% 30.11 in 10.0 mi SE 13.8 mph - N/A   Scattered Clouds
4:51 PM 57.2 °F - 48.2 °F 72% 30.07 in 10.0 mi SE 13.8 mph - N/A   Partly Cloudy
5:51 PM 64.9 °F - 48.9 °F 56% 30.07 in 10.0 mi South 13.8 mph 20.7 mph N/A   Partly Cloudy
6:51 PM 61.0 °F - 48.0 °F 62% 30.06 in 10.0 mi SSW 11.5 mph - N/A   Mostly Cloudy
7:51 PM 57.9 °F - 46.9 °F 67% 30.07 in 10.0 mi South 11.5 mph - N/A   Partly Cloudy
8:51 PM 55.9 °F - 48.0 °F 75% 30.08 in 10.0 mi South 10.4 mph - N/A   Mostly Cloudy
9:51 PM 57.9 °F - 51.1 °F 78% 30.07 in 10.0 mi SSW 16.1 mph - N/A   Overcast
10:51 PM 57.9 °F - 51.1 °F 78% 30.07 in 10.0 mi SSW 15.0 mph 20.7 mph N/A   Partly Cloudy
11:51 PM 57.9 °F - 51.1 °F 78% 30.07 in 10.0 mi SSW 10.4 mph - N/A   Partly Cloudy